TimeCET,TemperatureF,Dew PointF,Humidity,Sea Level PressureIn,VisibilityMPH,Wind Direction,Wind SpeedMPH,Gust SpeedMPH,PrecipitationIn,Events,Conditions,WindDirDegrees,DateUTC
12:00 AM,40,40,100,29.71,2,North,2.2,,,,Mist,0,2012-11-27 23:00:00
12:20 AM,41.0,37.4,87,29.65,-9999.0,NNE,4.6,-,N/A,,Overcast,20,2012-11-27 23:20:00
12:50 AM,41.0,37.4,87,29.65,-9999.0,North,6.9,-,N/A,,Overcast,10,2012-11-27 23:50:00
1:00 AM,40,40,100,29.68,2,North,4.5,,,Rain,Light Drizzle,10,2012-11-28 00:00:00
1:20 AM,41.0,37.4,87,29.62,2.2,North,4.6,-,N/A,,Overcast,360,2012-11-28 00:20:00
1:50 AM,41.0,37.4,87,29.65,-9999.0,NNE,4.6,-,N/A,,Overcast,20,2012-11-28 00:50:00
2:00 AM,41,40,95,29.68,1,NNE,4.5,,,Rain,Rain,20,2012-11-28 01:00:00
2:20 AM,41.0,37.4,87,29.65,-9999.0,NNE,6.9,-,N/A,Rain,Light Rain,20,2012-11-28 01:20:00
2:50 AM,41.0,37.4,87,29.62,-9999.0,North,5.8,-,N/A,Rain,Light Rain,360,2012-11-28 01:50:00
3:00 AM,40,40,100,29.67,1,North,6.7,,,Rain,Light Rain,350,2012-11-28 02:00:00
3:20 AM,41.0,37.4,87,29.62,1.9,North,8.1,-,N/A,,Light Drizzle,10,2012-11-28 02:20:00
3:50 AM,41.0,37.4,87,29.59,-9999.0,North,9.2,-,N/A,,Overcast,10,2012-11-28 02:50:00
4:20 AM,41.0,37.4,87,29.62,1.5,North,9.2,-,N/A,,Overcast,10,2012-11-28 03:20:00
4:50 AM,39.2,37.4,93,29.59,1.0,North,6.9,-,N/A,,Overcast,360,2012-11-28 03:50:00
5:00 AM,40,40,98,29.65,1,North,8.9,,,Fog,Fog,0,2012-11-28 04:00:00
5:20 AM,39.2,37.4,93,29.59,0.6,North,9.2,-,N/A,,Heavy Drizzle,10,2012-11-28 04:20:00
5:50 AM,39.2,37.4,93,29.59,1.0,NNE,11.5,-,N/A,,Drizzle,20,2012-11-28 04:50:00
6:00 AM,39,39,100,29.63,1,NNE,6.7,,,Rain,Light Drizzle,30,2012-11-28 05:00:00
6:20 AM,39.2,37.4,93,29.59,0.9,NNE,10.4,-,N/A,,Heavy Drizzle,20,2012-11-28 05:20:00
6:50 AM,39.2,37.4,93,29.59,0.9,North,8.1,-,N/A,,Heavy Drizzle,360,2012-11-28 05:50:00
7:00 AM,40,40,98,29.63,0,North,6.7,,,Rain,Light Rain,10,2012-11-28 06:00:00
7:20 AM,39.2,37.4,93,29.59,1.0,North,8.1,-,N/A,,Heavy Drizzle,10,2012-11-28 06:20:00
7:50 AM,39.2,37.4,93,29.59,1.5,North,9.2,-,N/A,,Drizzle,10,2012-11-28 06:50:00
8:00 AM,40,39,97,29.63,1,NNE,6.7,,,Rain,Light Drizzle,20,2012-11-28 07:00:00
8:20 AM,39.2,37.4,93,29.59,1.4,North,9.2,-,N/A,Rain,Rain,10,2012-11-28 07:20:00
8:50 AM,39.2,37.4,93,29.59,1.4,North,9.2,-,N/A,Rain,Light Rain,10,2012-11-28 07:50:00
9:00 AM,39,39,100,29.62,1,North,8.9,,,Rain,Drizzle,10,2012-11-28 08:00:00
9:20 AM,39.2,37.4,93,29.59,1.6,North,9.2,-,N/A,Rain,Light Rain,10,2012-11-28 08:20:00
9:50 AM,39.2,37.4,93,29.59,1.4,North,9.2,-,N/A,Rain,Light Rain,360,2012-11-28 08:50:00
10:20 AM,39.2,37.4,93,29.59,1.2,North,9.2,-,N/A,Rain,Light Rain,360,2012-11-28 09:20:00
10:50 AM,39.2,37.4,93,29.59,1.2,North,10.4,-,N/A,,Heavy Drizzle,10,2012-11-28 09:50:00
11:00 AM,39,39,98,29.63,1,North,8.9,,,Rain,Light Drizzle,0,2012-11-28 10:00:00
11:20 AM,39.2,37.4,93,29.59,1.1,North,10.4,-,N/A,,Heavy Drizzle,360,2012-11-28 10:20:00
11:50 AM,39.2,37.4,93,29.56,1.4,North,11.5,-,N/A,,Drizzle,10,2012-11-28 10:50:00
12:00 PM,39,38,97,29.60,1,North,11.2,,,Rain,Light Drizzle,10,2012-11-28 11:00:00
12:20 PM,39.2,37.4,93,29.56,1.1,North,13.8,-,N/A,,Drizzle,10,2012-11-28 11:20:00
12:50 PM,39.2,37.4,93,29.56,1.4,NNE,12.7,-,N/A,,Drizzle,20,2012-11-28 11:50:00
1:00 PM,39,39,98,29.59,1,NNE,6.7,,,Rain,Drizzle,30,2012-11-28 12:00:00
1:20 PM,39.2,37.4,93,29.53,1.2,North,12.7,-,N/A,,Heavy Drizzle,10,2012-11-28 12:20:00
1:50 PM,39.2,37.4,93,29.53,1.4,North,12.7,-,N/A,,Drizzle,10,2012-11-28 12:50:00
2:00 PM,39,39,99,29.58,1,NNE,8.9,,,Rain,Light Drizzle,20,2012-11-28 13:00:00
2:20 PM,39.2,37.4,93,29.53,1.6,North,12.7,-,N/A,,Drizzle,10,2012-11-28 13:20:00
2:50 PM,39.2,37.4,93,29.53,-9999.0,NNE,13.8,-,N/A,,Drizzle,20,2012-11-28 13:50:00
3:00 PM,39,38,97,29.56,1,NNE,11.2,,,Rain,Light Drizzle,20,2012-11-28 14:00:00
3:50 PM,39.2,37.4,93,29.50,1.6,North,15.0,-,N/A,,Drizzle,10,2012-11-28 14:50:00
4:20 PM,39.2,37.4,93,29.50,1.7,North,15.0,-,N/A,,Drizzle,10,2012-11-28 15:20:00
4:50 PM,37.4,35.6,93,29.50,1.7,NNE,12.7,-,N/A,,Drizzle,20,2012-11-28 15:50:00
5:00 PM,38,38,100,29.56,1,NNE,11.2,,,Rain,Light Drizzle,20,2012-11-28 16:00:00
5:20 PM,37.4,35.6,93,29.50,1.5,North,15.0,-,N/A,,Drizzle,10,2012-11-28 16:20:00
5:50 PM,37.4,35.6,93,29.50,1.7,NNE,12.7,-,N/A,,Drizzle,20,2012-11-28 16:50:00
6:00 PM,38,38,99,29.56,2,NNE,6.7,,,Rain,Light Drizzle,20,2012-11-28 17:00:00
6:20 PM,37.4,35.6,93,29.47,1.6,NNE,16.1,-,N/A,,Drizzle,20,2012-11-28 17:20:00
6:50 PM,37.4,35.6,93,29.47,-9999.0,North,13.8,-,N/A,,Drizzle,10,2012-11-28 17:50:00
7:00 PM,38,37,97,29.53,2,NNE,13.4,,,Rain,Light Drizzle,20,2012-11-28 18:00:00
7:20 PM,37.4,35.6,93,29.47,-9999.0,North,16.1,-,N/A,Rain,Light Rain,10,2012-11-28 18:20:00
7:50 PM,37.4,35.6,93,29.47,5.6,North,18.4,-,N/A,,Light Drizzle,10,2012-11-28 18:50:00
8:00 PM,37,36,97,29.51,3,NNE,13.4,,,Rain,Light Drizzle,20,2012-11-28 19:00:00
8:20 PM,37.4,35.6,93,29.44,4.3,North,18.4,-,N/A,,Overcast,10,2012-11-28 19:20:00
8:50 PM,37.4,33.8,87,29.47,-9999.0,North,17.3,-,N/A,,Drizzle,10,2012-11-28 19:50:00
9:00 PM,36,36,100,29.52,3,NNE,11.2,,,,Mist,20,2012-11-28 20:00:00
9:20 PM,37.4,35.6,93,29.47,1.1,NNE,18.4,-,N/A,,Drizzle,20,2012-11-28 20:20:00
9:50 PM,37.4,35.6,93,29.47,1.5,NNE,16.1,-,N/A,,Drizzle,20,2012-11-28 20:50:00
10:20 PM,35.6,33.8,93,29.44,1.5,NNE,18.4,-,N/A,,Heavy Drizzle,20,2012-11-28 21:20:00
10:50 PM,35.6,33.8,93,29.44,1.6,North,17.3,-,N/A,,Drizzle,10,2012-11-28 21:50:00
11:00 PM,36,36,98,29.50,1,North,15.7,,,Rain,Drizzle,10,2012-11-28 22:00:00
11:20 PM,35.6,33.8,93,29.44,1.7,North,17.3,-,N/A,,Drizzle,10,2012-11-28 22:20:00
11:50 PM,35.6,33.8,93,29.44,-9999.0,North,18.4,32.2,N/A,,Drizzle,10,2012-11-28 22:50:00